N2611 -KLWM

Flight info

Callsign N2611
Flight time N/A
Altitude VFR/025
Route
Aircraft C204/L-VGD/C

Departure

Time N/A
Airport -

Arrival

Time 2026-04-28 19:28
Airport Lawrence Municipal Airport (KLWM)
Time Latitude Longitude Altitude Speed Heading
2026-04-28 19:28 42.71387 -71.12262 134 ft 0 kts 254°
2026-04-28 19:35 42.71379 -71.12289 144 ft 9 kts 234°
2026-04-28 19:36 42.71323 -71.12334 144 ft 10 kts 220°
2026-04-28 19:36 42.71260 -71.12399 143 ft 13 kts 224°
2026-04-28 19:36 42.71227 -71.12484 139 ft 12 kts 313°
2026-04-28 19:36 42.71205 -71.12559 136 ft 12 kts 226°
2026-04-28 19:37 42.71130 -71.12654 135 ft 16 kts 213°
2026-04-28 19:37 42.71083 -71.12718 136 ft 14 kts 228°
2026-04-28 19:37 42.71083 -71.12861 136 ft 13 kts 323°
2026-04-28 19:37 42.71170 -71.12807 137 ft 31 kts 36°
2026-04-28 19:38 42.71508 -71.12449 146 ft 90 kts 35°
2026-04-28 19:38 42.72129 -71.11974 414 ft 111 kts 36°
2026-04-28 19:38 42.72857 -71.11497 805 ft 126 kts 12°
2026-04-28 19:38 42.73653 -71.11987 1210 ft 136 kts 310°
2026-04-28 19:39 42.74165 -71.13091 1604 ft 140 kts 306°
2026-04-28 19:39 42.74711 -71.14220 2010 ft 146 kts 307°
2026-04-28 19:39 42.75270 -71.15388 2382 ft 146 kts 306°
2026-04-28 19:39 42.75829 -71.16552 2781 ft 145 kts 305°
2026-04-28 19:40 42.76393 -71.17707 3172 ft 149 kts 306°
2026-04-28 19:40 42.76976 -71.18894 3553 ft 151 kts 306°
2026-04-28 19:40 42.77554 -71.20084 3929 ft 154 kts 306°
2026-04-28 19:40 42.77916 -71.21423 4302 ft 154 kts 266°
2026-04-28 19:41 42.77524 -71.22566 4503 ft 158 kts 222°
2026-04-28 19:41 42.76652 -71.23540 4510 ft 178 kts 216°
2026-04-28 19:41 42.75641 -71.24626 4515 ft 190 kts 217°
2026-04-28 19:41 42.74579 -71.25776 4517 ft 198 kts 216°
2026-04-28 19:42 42.73482 -71.26941 4516 ft 201 kts 216°
2026-04-28 19:42 42.72373 -71.28130 4503 ft 203 kts 216°
2026-04-28 19:42 42.71257 -71.29312 4508 ft 204 kts 217°
2026-04-28 19:42 42.70515 -71.30097 4504 ft 205 kts 217°
2026-04-28 19:43 42.69016 -71.31670 4505 ft 206 kts 216°
2026-04-28 19:43 42.67883 -71.32857 4511 ft 205 kts 216°
2026-04-28 19:43 42.66752 -71.34062 4494 ft 207 kts 217°
2026-04-28 19:43 42.65615 -71.35275 4467 ft 205 kts 217°
2026-04-28 19:44 42.64454 -71.36365 4464 ft 206 kts 204°
2026-04-28 19:44 42.63118 -71.37040 4468 ft 205 kts 196°
2026-04-28 19:44 42.61760 -71.37646 4467 ft 205 kts 197°
2026-04-28 19:44 42.60410 -71.38251 4464 ft 204 kts 196°
2026-04-28 19:45 42.59069 -71.38843 4464 ft 202 kts 196°
2026-04-28 19:45 42.57724 -71.39448 4466 ft 205 kts 196°
2026-04-28 19:45 42.56368 -71.40054 4461 ft 205 kts 196°
2026-04-28 19:45 42.55022 -71.40643 4463 ft 201 kts 196°
2026-04-28 19:46 42.53691 -71.41230 4458 ft 200 kts 197°
2026-04-28 19:46 42.52359 -71.41829 4458 ft 202 kts 197°
2026-04-28 19:46 42.51026 -71.42418 4461 ft 202 kts 196°
2026-04-28 19:46 42.49699 -71.43008 4455 ft 203 kts 198°
2026-04-28 19:47 42.48388 -71.43716 4463 ft 204 kts 204°
2026-04-28 19:47 42.47222 -71.44805 4476 ft 204 kts 220°
2026-04-28 19:47 42.46216 -71.46161 4477 ft 204 kts 226°
2026-04-28 19:47 42.45223 -71.47552 4468 ft 204 kts 224°
2026-04-28 19:48 42.44206 -71.48895 4465 ft 204 kts 223°
2026-04-28 19:48 42.43184 -71.50221 4471 ft 203 kts 224°
2026-04-28 19:48 42.42169 -71.51562 4468 ft 203 kts 223°
2026-04-28 19:48 42.41153 -71.52895 4471 ft 203 kts 223°
2026-04-28 19:49 42.40136 -71.54232 4464 ft 205 kts 224°
2026-04-28 19:49 42.39123 -71.55587 4476 ft 205 kts 223°
2026-04-28 19:49 42.38097 -71.56926 4467 ft 205 kts 223°
2026-04-28 19:49 42.37086 -71.58257 4462 ft 205 kts 224°
2026-04-28 19:50 42.35044 -71.60925 4497 ft 206 kts 224°
2026-04-28 19:50 42.34006 -71.62301 4501 ft 213 kts 223°
2026-04-28 19:50 42.32932 -71.63712 4494 ft 215 kts 223°
2026-04-28 19:51 42.31873 -71.65104 4693 ft 210 kts 224°
2026-04-28 19:51 42.30834 -71.66458 4950 ft 205 kts 223°
2026-04-28 19:51 42.29810 -71.67791 5190 ft 203 kts 224°
2026-04-28 19:51 42.28811 -71.69110 5429 ft 198 kts 224°
2026-04-28 19:52 42.27823 -71.70398 5690 ft 197 kts 223°
2026-04-28 19:52 42.26859 -71.71660 5941 ft 194 kts 226°
2026-04-28 19:52 42.25848 -71.72867 6188 ft 193 kts 217°
2026-04-28 19:52 42.24769 -71.73947 6443 ft 193 kts 217°
2026-04-28 19:53 42.23689 -71.75019 6697 ft 193 kts 217°
2026-04-28 19:53 42.22602 -71.76092 6939 ft 193 kts 217°
2026-04-28 19:53 42.21532 -71.77146 7175 ft 193 kts 217°
2026-04-28 19:53 42.20514 -71.78320 7424 ft 193 kts 226°
2026-04-28 19:54 42.19584 -71.79621 7669 ft 192 kts 230°
2026-04-28 19:54 42.18946 -71.81191 7927 ft 191 kts 246°
2026-04-28 19:54 42.18304 -71.82753 8172 ft 191 kts 233°
2026-04-28 19:54 42.17398 -71.84069 8417 ft 191 kts 224°
2026-04-28 19:55 42.16422 -71.85294 8671 ft 192 kts 224°
2026-04-28 19:55 42.15455 -71.86532 8926 ft 192 kts 225°
2026-04-28 19:55 42.14496 -71.87783 9184 ft 192 kts 225°
2026-04-28 19:55 42.13540 -71.89032 9521 ft 189 kts 226°
2026-04-28 19:56 42.12611 -71.90233 9905 ft 185 kts 225°
2026-04-28 19:56 42.11692 -71.91424 10273 ft 182 kts 226°
2026-04-28 19:56 42.10776 -71.92609 10479 ft 188 kts 226°
2026-04-28 19:56 42.09803 -71.93879 10480 ft 201 kts 226°
2026-04-28 19:57 42.08771 -71.95229 10487 ft 210 kts 226°
2026-04-28 19:57 42.07704 -71.96616 10491 ft 216 kts 226°
2026-04-28 19:57 42.06609 -71.98034 10490 ft 220 kts 226°
2026-04-28 19:57 42.05495 -71.99476 10488 ft 223 kts 225°
2026-04-28 19:58 42.04393 -72.00905 10483 ft 224 kts 226°
2026-04-28 19:58 42.03267 -72.02362 10485 ft 224 kts 226°
2026-04-28 19:58 42.02139 -72.03818 10480 ft 225 kts 226°
2026-04-28 19:58 42.01009 -72.05279 10472 ft 225 kts 226°
2026-04-28 19:59 41.99880 -72.06742 10468 ft 225 kts 225°
2026-04-28 19:59 41.98747 -72.08202 10466 ft 226 kts 226°
2026-04-28 19:59 41.97615 -72.09667 10457 ft 226 kts 226°
2026-04-28 19:59 41.96481 -72.11129 10452 ft 226 kts 225°
2026-04-28 20:00 41.95347 -72.12592 10450 ft 226 kts 226°
2026-04-28 20:00 41.94211 -72.14055 10449 ft 226 kts 226°
2026-04-28 20:00 41.93076 -72.15516 10444 ft 225 kts 226°
2026-04-28 20:00 41.91945 -72.16972 10447 ft 226 kts 226°
2026-04-28 20:01 41.90812 -72.18431 10441 ft 226 kts 226°
2026-04-28 20:01 41.89677 -72.19889 10439 ft 225 kts 225°
2026-04-28 20:01 41.88543 -72.21346 10439 ft 226 kts 226°
2026-04-28 20:01 41.87425 -72.22787 10436 ft 226 kts 226°
2026-04-28 20:02 41.86290 -72.24246 10437 ft 226 kts 226°
2026-04-28 20:02 41.85153 -72.25704 10436 ft 226 kts 226°
2026-04-28 20:02 41.84016 -72.27155 10433 ft 226 kts 226°
2026-04-28 20:02 41.82884 -72.28612 10432 ft 226 kts 225°
2026-04-28 20:03 41.81752 -72.30068 10433 ft 225 kts 226°
2026-04-28 20:03 41.80611 -72.31523 10433 ft 227 kts 225°
2026-04-28 20:03 41.79469 -72.32982 10429 ft 226 kts 226°
2026-04-28 20:03 41.78337 -72.34440 10430 ft 225 kts 226°
2026-04-28 20:04 41.77198 -72.35890 10435 ft 226 kts 225°
2026-04-28 20:04 41.76058 -72.37348 10435 ft 226 kts 226°
2026-04-28 20:04 41.74924 -72.38804 10433 ft 226 kts 226°
2026-04-28 20:04 41.73800 -72.40233 10433 ft 225 kts 225°
2026-04-28 20:05 41.72666 -72.41681 10419 ft 225 kts 226°
2026-04-28 20:05 41.71532 -72.43132 10419 ft 225 kts 226°
2026-04-28 20:05 41.70400 -72.44573 10421 ft 225 kts 226°
2026-04-28 20:05 41.69269 -72.46014 10422 ft 225 kts 226°
2026-04-28 20:06 41.68137 -72.47451 10419 ft 225 kts 226°
2026-04-28 20:06 41.67007 -72.48891 10417 ft 224 kts 226°
2026-04-28 20:06 41.65879 -72.50330 10416 ft 224 kts 226°
2026-04-28 20:06 41.64749 -72.51763 10419 ft 223 kts 226°
2026-04-28 20:07 41.63624 -72.53197 10416 ft 223 kts 226°
2026-04-28 20:07 41.62877 -72.54145 10419 ft 224 kts 226°
2026-04-28 20:07 41.61364 -72.56068 10363 ft 227 kts 226°
2026-04-28 20:07 41.60206 -72.57540 10179 ft 232 kts 226°
2026-04-28 20:08 41.59038 -72.59026 9942 ft 237 kts 226°
2026-04-28 20:08 41.57835 -72.60550 9683 ft 240 kts 225°
2026-04-28 20:08 41.56619 -72.62089 9438 ft 241 kts 226°
2026-04-28 20:08 41.55407 -72.63634 9177 ft 241 kts 226°
2026-04-28 20:09 41.54189 -72.65176 8919 ft 241 kts 225°
2026-04-28 20:09 41.52965 -72.66713 8670 ft 242 kts 225°
2026-04-28 20:09 41.51746 -72.68254 8407 ft 242 kts 225°
2026-04-28 20:09 41.50530 -72.69802 8170 ft 241 kts 225°
2026-04-28 20:10 41.49310 -72.71347 7910 ft 241 kts 225°
2026-04-28 20:10 41.48103 -72.72861 7669 ft 241 kts 224°
2026-04-28 20:10 41.46882 -72.74394 7410 ft 240 kts 225°
2026-04-28 20:10 41.45667 -72.75940 7160 ft 237 kts 224°
2026-04-28 20:11 41.44479 -72.77414 6939 ft 236 kts 225°
2026-04-28 20:11 41.43281 -72.78924 6682 ft 237 kts 224°
2026-04-28 20:11 41.42086 -72.80425 6427 ft 236 kts 224°
2026-04-28 20:11 41.40905 -72.81932 6169 ft 235 kts 225°
2026-04-28 20:12 41.39723 -72.83432 5922 ft 234 kts 224°
2026-04-28 20:12 41.38528 -72.84913 5714 ft 234 kts 223°
2026-04-28 20:12 41.37346 -72.86395 5529 ft 233 kts 224°
2026-04-28 20:12 41.36564 -72.87381 5387 ft 234 kts 223°
2026-04-28 20:13 41.34979 -72.89365 5122 ft 235 kts 223°
2026-04-28 20:13 41.33891 -72.90955 4923 ft 234 kts 231°
2026-04-28 20:13 41.32910 -72.92691 4727 ft 235 kts 233°
2026-04-28 20:13 41.31945 -72.94427 4593 ft 233 kts 233°
2026-04-28 20:14 41.30990 -72.96155 4475 ft 231 kts 232°
2026-04-28 20:14 41.30037 -72.97879 4329 ft 230 kts 232°
2026-04-28 20:14 41.29088 -72.99584 4207 ft 228 kts 231°
2026-04-28 20:14 41.28079 -73.01196 4075 ft 226 kts 228°
2026-04-28 20:15 41.27047 -73.02774 3947 ft 226 kts 228°
2026-04-28 20:15 41.26024 -73.04341 3848 ft 223 kts 228°
2026-04-28 20:15 41.24997 -73.05901 3719 ft 224 kts 227°
2026-04-28 20:15 41.23983 -73.07433 3596 ft 223 kts 228°
2026-04-28 20:16 41.22965 -73.08972 3467 ft 220 kts 228°
2026-04-28 20:16 41.21953 -73.10506 3349 ft 222 kts 228°
2026-04-28 20:16 41.20938 -73.12060 3215 ft 221 kts 228°
2026-04-28 20:16 41.19924 -73.13598 3035 ft 222 kts 227°
2026-04-28 20:17 41.18915 -73.15126 2802 ft 214 kts 228°
2026-04-28 20:17 41.17949 -73.16575 2541 ft 206 kts 227°
2026-04-28 20:17 41.17008 -73.17971 2277 ft 204 kts 227°
2026-04-28 20:17 41.16066 -73.19377 2040 ft 205 kts 228°
2026-04-28 20:18 41.15128 -73.20785 1761 ft 200 kts 228°
2026-04-28 20:18 41.14521 -73.21697 1590 ft 198 kts 227°
2026-04-28 20:18 41.13352 -73.23462 1497 ft 181 kts 227°
2026-04-28 20:18 41.12407 -73.24470 1481 ft 173 kts 199°
2026-04-28 20:19 41.11271 -73.24422 1484 ft 168 kts 157°
2026-04-28 20:19 41.10365 -73.23472 1491 ft 167 kts 138°
2026-04-28 20:19 41.09573 -73.22389 1506 ft 161 kts 126°
2026-04-28 20:19 41.09353 -73.20985 1491 ft 159 kts 81°
2026-04-28 20:20 41.09974 -73.19816 1489 ft 160 kts 33°
2026-04-28 20:20 41.11039 -73.19439 1492 ft 158 kts 10°
2026-04-28 20:20 41.12069 -73.18979 1498 ft 156 kts 37°
2026-04-28 20:20 41.12800 -73.17944 1379 ft 151 kts 59°
2026-04-28 20:21 41.13278 -73.16902 1135 ft 119 kts 63°
2026-04-28 20:21 41.13760 -73.16082 885 ft 111 kts 50°
2026-04-28 20:21 41.14295 -73.15325 514 ft 113 kts 51°
2026-04-28 20:21 41.14766 -73.14600 360 ft 108 kts 53°
2026-04-28 20:22 41.15240 -73.13875 198 ft 101 kts 52°
2026-04-28 20:22 41.15714 -73.13204 41 ft 98 kts 45°
2026-04-28 20:22 41.16147 -73.12610 12 ft 77 kts 40°
2026-04-28 20:22 41.16397 -73.12268 13 ft 34 kts 47°
2026-04-28 20:23 41.16557 -73.12077 11 ft 9 kts 44°
2026-04-28 20:23 41.16590 -73.12034 10 ft 11 kts 44°
2026-04-28 20:23 41.16635 -73.12014 9 ft 5 kts 309°
2026-04-28 20:23 41.16653 -73.12046 10 ft 4 kts 306°
2026-04-28 20:24 41.16670 -73.12079 11 ft 4 kts 301°
2026-04-28 20:24 41.16667 -73.12138 12 ft 11 kts 204°
2026-04-28 20:24 41.16613 -73.12201 13 ft 10 kts 272°
2026-04-28 20:24 41.16640 -73.12225 13 ft 0 kts 347°